sat.trackr.live / text

‹ back to catalog

STARLINK-35382

NORAD 66019 · 2025-232Q

PAYLOAD ACTIVE UNKNOWN

§ Identity

Operator
Country
US
Launch date
2025-10-16
Launch site
AFETR
Launch vehicle
Mass (kg)
RCS (m²)

Purposes: comms

External: N2YO · Heavens-Above · Gunter

§ Orbital elements

Epoch: 2026-05-25T04:10:30.042912Z

Period
94.10 min
Inclination
53.1591°
Eccentricity
0.0001450
Mean motion
15.30214250 rev/d
Perigee alt
474.2 km
Apogee alt
476.2 km
Semi-major
6,853.3 km
B*
6.2105e-4
RAAN
108.7857°
Arg perigee
94.7098°
Mean anomaly
265.4069°
Rev number
3,514

§ Raw data

STARLINK-353821 66019U 25232Q   26145.17395883  .00018087  00000+0  62105-3 0  99982 66019  53.1591 108.7857 0001450  94.7098 265.4069 15.30214250 35149

JSON: /api/v1/satellites/66019 · /tle

For live sub-satellite position, see the globe view (requires WebGL).

§ Visibility from observer

Set your observer location to see the next 7 days of passes ≥ 10°. The values pass through the URL so the page stays shareable.

No JS? Fill the form by hand. The geolocation button needs JavaScript.